Regional Weather Roundup
Issued by NWS

Home | Current Version | Previous Version | Text Only | Print | Product List | Glossary On
Versions: 1 2 3 4 5 6 7 8 9 10 11 12 13 14 15 16 17 18 19 20 21 22 23 24 25 26 27 28 29 30 31 32 33 34 35 36 37 38 39 40 41 42 43 44 45 46 47 48 49 50
000
ASUS43 KBIS 250110
RWRND

NORTH DAKOTA REGIONAL WEATHER ROUNDUP
NATIONAL WEATHER SERVICE BISMARCK ND
800 PM CDT SUN JUL 24 2016

NOTE: "FAIR" INDICATES FEW OR NO CLOUDS BELOW 12,000 FEET WITH NO
SIGNIFICANT WEATHER AND/OR OBSTRUCTIONS TO VISIBILITY.


NDZ001>003-009>011-017-250200-
NORTHWEST NORTH DAKOTA

CITY           SKY/WX    TMP DP  RH WIND       PRES   REMARKS
WILLISTON      SUNNY     87  50  27 N6        29.97F
MINOT          SUNNY     81  59  47 N6        29.98S
MINOT AFB      SUNNY     78  57  48 N5        29.97S
$$

NDZ018>021-031>035-040>046-250200-
SOUTHWEST NORTH DAKOTA

CITY           SKY/WX    TMP DP  RH WIND       PRES   REMARKS
BISMARCK       SUNNY     80  56  43 NE8       30.01F
DICKINSON      SUNNY     82  48  30 CALM      30.01F
GARRISON         N/A     79  57  46 NW6       30.00F
HETTINGER ARPT MOSUNNY   86  45  23 SE13      30.05F
$$

NDZ004>008-012>016-024-026-027-054-250200-
NORTHEAST NORTH DAKOTA

CITY           SKY/WX    TMP DP  RH WIND       PRES   REMARKS
GRAND FORKS    SUNNY     76  61  59 W9        29.91R
GRND FRKS AFB  SUNNY     77  60  55 W8        29.93R
DEVILS LAKE    SUNNY     75  57  53 NW14      29.97R
$$

NDZ022-023-025-028>030-036>039-047>053-250200-
SOUTHEAST NORTH DAKOTA

CITY           SKY/WX    TMP DP  RH WIND       PRES   REMARKS
FARGO          CLEAR     79  58  48 W9        29.94S
JAMESTOWN      SUNNY     76  59  55 NW10      29.99R
$$





USA.gov is the U.S. government's official web portal to all federal, state and local government web resources and services.